College Park, MD

11:27 AM EDT on June 25, 2017 (GMT -0400)
College Park

Weather History for KCGS - December, 2012

Change the Weather History Date:

Tuesday, December 4, 2012

  Actual Average Record
Temperature  
Mean Temperature 60 °F -  
Max Temperature 74 °F 50 °F 74 °F (2012)
Min Temperature 46 °F 32 °F 11 °F (1966)
Degree Days  
Heating Degree Days 5    
Growing Degree Days 10 (Base 50)    
Moisture  
Dew Point 52 °F    
Average Humidity 79    
Maximum Humidity 100    
Minimum Humidity 47    
Precipitation  
Precipitation 0.00 in - - ()
Sea Level Pressure  
Sea Level Pressure 30.16 in    
Wind  
Wind Speed 1 mph (South)    
Max Wind Speed 8 mph    
Max Gust Speed -    
Visibility 8 miles    
Events      
Averages and records for this station are not official NWS values.
T = Trace of Precipitation, MM = Missing Value Source: NWS Daily Summary

Daily Weather History Graph

Daily Weather History Graph

Search for Another Location

Airport or City:

Trip Planner

Search our weather history database for the weather conditions in past years. The results will help you decide how hot, cold, wet, or windy it might be!

Date:

Astronomy

Dec. 04, 2012 Rise Set
Actual Time 7:10 AM EST 4:45 PM EST
Civil Twilight 6:41 AM EST 5:14 PM EST
Nautical Twilight 6:07 AM EST 5:48 PM EST
Astronomical Twilight 5:35 AM EST 6:20 PM EST
Moon 10:28 PM EST (12/4) 11:05 AM EST (12/4)
Length of Visible Light 10h 33m
Length of Day
9h 34m
Waning Gibbous, 69% of the Moon is Illuminated
Dec 4
Waning Gibbous
Dec 6
Last Quarter
Dec 13
New
Dec 20
First Quarter
Dec 28
Full

Hourly Weather History & Observations

Time (EST) Temp. Dew Point Humidity Pressure Visibility Wind Dir Wind Speed Gust Speed Precip Events Conditions
12:15 AM 48.4 °F 48.4 °F 100% 30.24 in 3.0 mi Calm Calm - N/A   Clear
12:40 AM 47.5 °F 47.5 °F 100% 30.23 in 4.0 mi Calm Calm - N/A   Clear
1:00 AM 48.4 °F 48.4 °F 100% 30.23 in 4.0 mi Calm Calm - N/A   Clear
1:20 AM 47.5 °F 47.5 °F 100% 30.23 in 1.0 mi Calm Calm - N/A   Unknown
1:40 AM 47.5 °F 47.5 °F 100% 30.23 in 0.5 mi Calm Calm - N/A   Unknown
2:05 AM 47.3 °F 47.3 °F 100% 30.24 in 1.2 mi Calm Calm - N/A   Unknown
2:25 AM 46.9 °F 46.9 °F 100% 30.24 in 0.8 mi Calm Calm - N/A   Unknown
2:45 AM 46.4 °F 46.4 °F 100% 30.23 in 4.0 mi Calm Calm - N/A   Mostly Cloudy
3:05 AM 47.5 °F 47.5 °F 100% 30.23 in 7.0 mi Calm Calm - N/A   Overcast
3:30 AM 48.4 °F 48.4 °F 100% 30.22 in 7.0 mi Calm Calm - N/A   Overcast
3:50 AM 48.6 °F 48.6 °F 100% 30.22 in 7.0 mi Calm Calm - N/A   Overcast
4:10 AM 49.1 °F 49.1 °F 100% 30.22 in 7.0 mi Calm Calm - N/A   Overcast
4:30 AM 48.7 °F 48.7 °F 100% 30.22 in 7.0 mi Calm Calm - N/A   Overcast
4:55 AM 49.1 °F 49.1 °F 100% 30.22 in 7.0 mi Calm Calm - N/A   Overcast
5:15 AM 48.6 °F 48.6 °F 100% 30.22 in 7.0 mi Calm Calm - N/A   Overcast
5:35 AM 48.7 °F 48.7 °F 100% 30.22 in 7.0 mi Calm Calm - N/A   Overcast
5:55 AM 49.1 °F 49.1 °F 100% 30.22 in 7.0 mi Calm Calm - N/A   Overcast
6:20 AM 49.6 °F 49.6 °F 100% 30.22 in 10.0 mi Calm Calm - N/A   Overcast
6:40 AM 49.6 °F 49.6 °F 100% 30.23 in 7.0 mi Calm Calm - N/A   Overcast
7:00 AM 50.2 °F 50.2 °F 100% 30.23 in 10.0 mi Calm Calm - N/A   Overcast
7:20 AM 50.2 °F 50.2 °F 100% 30.23 in 7.0 mi Calm Calm - N/A   Overcast
8:05 AM 51.1 °F 51.1 °F 100% 30.24 in 7.0 mi Calm Calm - N/A   Overcast
8:25 AM 52.3 °F 52.3 °F 100% 30.24 in 7.0 mi Calm Calm - N/A   Overcast
8:45 AM 53.2 °F 52.7 °F 98% 30.24 in 7.0 mi Calm Calm - N/A   Overcast
9:10 AM 55.6 °F 53.8 °F 94% 30.24 in 10.0 mi Calm Calm - N/A   Overcast
9:30 AM 58.6 °F 55.2 °F 88% 30.24 in 10.0 mi Calm Calm - N/A   Overcast
9:50 AM 60.6 °F 56.3 °F 86% 30.24 in 10.0 mi SSE 3.5 mph - N/A   Overcast
10:10 AM 61.7 °F 56.5 °F 83% 30.24 in 10.0 mi South 6.9 mph - N/A   Mostly Cloudy
10:35 AM 62.6 °F 56.7 °F 81% 30.23 in 10.0 mi South 4.6 mph - N/A   Mostly Cloudy
10:55 AM 65.1 °F 57.2 °F 75% 30.22 in 10.0 mi Calm Calm - N/A   Scattered Clouds
11:15 AM 65.7 °F 56.8 °F 73% 30.21 in 10.0 mi South 5.8 mph - N/A   Scattered Clouds
11:35 AM 68.0 °F 56.7 °F 67% 30.20 in 10.0 mi SSW 4.6 mph - N/A   Mostly Cloudy
12:00 PM 67.1 °F 56.3 °F 68% 30.19 in 10.0 mi South 5.8 mph - N/A   Scattered Clouds
12:20 PM 68.7 °F 55.8 °F 63% 30.18 in 10.0 mi SW 5.8 mph - N/A   Clear
12:40 PM 69.8 °F 55.9 °F 61% 30.17 in 10.0 mi SSW 3.5 mph - N/A   Clear
1:00 PM 71.1 °F 55.9 °F 59% 30.16 in 10.0 mi SSW 5.8 mph - N/A   Clear
1:25 PM 71.4 °F 55.4 °F 57% 30.14 in 10.0 mi SSW 3.5 mph - N/A   Clear
1:40 PM 71.8 °F 55.4 °F 56% 30.13 in 10.0 mi South 3.5 mph - N/A   Clear
2:50 PM 73.9 °F 53.4 °F 49% 30.11 in 10.0 mi SW 4.6 mph - N/A   Clear
3:10 PM 74.1 °F 52.9 °F 47% 30.11 in 10.0 mi SSW 3.5 mph - N/A   Clear
3:30 PM 73.8 °F 52.2 °F 47% 30.10 in 10.0 mi South 8.1 mph - N/A   Clear
3:50 PM 72.9 °F 52.0 °F 48% 30.10 in 10.0 mi South 4.6 mph - N/A   Clear
4:15 PM 71.8 °F 52.2 °F 50% 30.10 in 10.0 mi South 5.8 mph - N/A   Clear
4:35 PM 71.1 °F 52.3 °F 52% 30.10 in 10.0 mi South 4.6 mph - N/A   Clear
4:55 PM 70.7 °F 52.5 °F 52% 30.10 in 10.0 mi South 3.5 mph - N/A   Clear
5:15 PM 69.8 °F 52.5 °F 54% 30.10 in 10.0 mi Calm Calm - N/A   Clear
5:40 PM 66.9 °F 52.3 °F 59% 30.10 in 10.0 mi Calm Calm - N/A   Clear
6:00 PM 61.2 °F 52.0 °F 72% 30.09 in 10.0 mi Calm Calm - N/A   Clear
6:20 PM 59.2 °F 51.8 °F 77% 30.09 in 10.0 mi Calm Calm - N/A   Clear
6:40 PM 58.5 °F 51.8 °F 79% 30.09 in 10.0 mi Calm Calm - N/A   Clear
7:05 PM 57.2 °F 51.3 °F 81% 30.09 in 10.0 mi Calm Calm - N/A   Clear
7:25 PM 56.3 °F 50.2 °F 80% 30.08 in 10.0 mi Calm Calm - N/A   Clear
7:45 PM 56.1 °F 51.1 °F 83% 30.08 in 10.0 mi Calm Calm - N/A   Mostly Cloudy
8:05 PM 62.4 °F 52.9 °F 71% 30.07 in 10.0 mi Calm Calm - N/A   Overcast
8:30 PM 66.6 °F 52.9 °F 61% 30.07 in 10.0 mi South 3.5 mph - N/A   Overcast
8:50 PM 67.3 °F 52.7 °F 59% 30.06 in 10.0 mi South 3.5 mph - N/A   Overcast
9:10 PM 67.3 °F 52.7 °F 59% 30.06 in 10.0 mi SSW 3.5 mph - N/A   Overcast
9:30 PM 67.1 °F 52.5 °F 59% 30.06 in 10.0 mi SSW 4.6 mph - N/A   Overcast
9:55 PM 66.9 °F 52.7 °F 60% 30.05 in 10.0 mi South 4.6 mph - N/A   Overcast
10:15 PM 66.6 °F 52.7 °F 61% 30.04 in 10.0 mi South 3.5 mph - N/A   Mostly Cloudy
11:20 PM 65.8 °F 51.8 °F 60% 30.03 in 10.0 mi South 4.6 mph - N/A   Overcast
11:40 PM 65.7 °F 51.6 °F 60% 30.02 in 10.0 mi South 4.6 mph - N/A   Overcast